,,,PA_Meas_PMT16A,,PR_Meas_QMR101_102,,RH_Meas_QMH101,,SR_Meas_QMS101,,TA_Meas_QMH101,,GenWind,,GenWind,
date,time,status,PA,status,PR,status,RH,status,SR,status,TA,status,DirAvg,status,SpdAvg,
2012-03-05, 00:00:04,VALID,1001.87,VALID,0,VALID,94.4532,VALID,0,VALID,24.5796,VALID,107,VALID,0.841406,
2012-03-05, 00:01:04,VALID,1001.88,VALID,0,VALID,94.4608,VALID,0,VALID,24.5796,VALID,117,VALID,1.00664,
2012-03-05, 00:02:04,VALID,1001.85,VALID,0,VALID,94.4608,VALID,0,VALID,24.6204,VALID,128,VALID,1.00937,
2012-03-05, 00:03:04,VALID,1001.82,VALID,0,VALID,94.4989,VALID,0,VALID,24.5972,VALID,153,VALID,0.903516,
2012-03-05, 00:04:04,VALID,1001.8,VALID,0,VALID,94.5142,VALID,0,VALID,24.6361,VALID,153,VALID,0.677344,
2012-03-05, 00:05:04,VALID,1001.79,VALID,0,VALID,94.3311,VALID,0,VALID,24.599,VALID,149,VALID,1.5,
2012-03-05, 00:06:04,VALID,1001.81,VALID,0,VALID,94.2167,VALID,0,VALID,24.599,VALID,102,VALID,1.80703,
2012-03-05, 00:07:04,VALID,1001.76,VALID,0,VALID,93.4614,VALID,0,VALID,24.4628,VALID,112,VALID,3.0332,
2012-03-05, 00:08:04,VALID,1001.82,VALID,0.5,VALID,92.874,VALID,0,VALID,24.4628,VALID,134,VALID,2.71367,
2012-03-05, 00:09:04,VALID,1001.77,VALID,0,VALID,92.8435,VALID,0,VALID,24.4414,VALID,127,VALID,2.63008,
2012-03-05, 00:10:04,VALID,1001.76,VALID,0,VALID,92.5383,VALID,0,VALID,24.422,VALID,129,VALID,2.87656,
2012-03-05, 00:11:04,VALID,1001.75,VALID,0,VALID,92.3323,VALID,0,VALID,24.4998,VALID,139,VALID,2.41328,
2012-03-05, 00:12:04,VALID,1001.74,VALID,0,VALID,92.3934,VALID,0,VALID,24.5212,VALID,124,VALID,2.02305,
2012-03-05, 00:13:04,VALID,1001.73,VALID,0,VALID,92.5231,VALID,0,VALID,24.4998,VALID,104,VALID,0.889453,
2012-03-05, 00:14:04,VALID,1001.74,VALID,0,VALID,92.5917,VALID,0,VALID,24.4822,VALID,98,VALID,0.899219,
2012-03-05, 00:15:04,VALID,1001.77,VALID,0,VALID,92.729,VALID,0,VALID,24.4628,VALID,101,VALID,2.12812,
2012-03-05, 00:16:04,VALID,1001.79,VALID,0,VALID,92.8358,VALID,0,VALID,24.4628,VALID,114,VALID,1.41797,
2012-03-05, 00:17:04,VALID,1001.77,VALID,0,VALID,93.1868,VALID,0,VALID,24.5212,VALID,134,VALID,2.4,
2012-03-05, 00:18:04,VALID,1001.77,VALID,0,VALID,93.2325,VALID,0,VALID,24.5193,VALID,114,VALID,1.92344,
2012-03-05, 00:19:04,VALID,1001.71,VALID,0,VALID,93.3394,VALID,0,VALID,24.5601,VALID,127,VALID,1.83359,
2012-03-05, 00:20:04,VALID,1001.68,VALID,0.5,VALID,93.408,VALID,0,VALID,24.5796,VALID,123,VALID,1.49609,
2012-03-05, 00:21:04,VALID,1001.64,VALID,0,VALID,93.4004,VALID,0,VALID,24.599,VALID,109,VALID,0.614453,
2012-03-05, 00:22:04,VALID,1001.62,VALID,0,VALID,93.4309,VALID,0,VALID,24.6185,VALID,116,VALID,1.09414,
2012-03-05, 00:23:04,VALID,1001.59,VALID,0,VALID,93.4385,VALID,0,VALID,24.5972,VALID,142,VALID,0.707031,
2012-03-05, 00:24:04,VALID,1001.59,VALID,0,VALID,93.4919,VALID,0,VALID,24.5972,VALID,143,VALID,0.407813,
2012-03-05, 00:25:04,VALID,1001.61,VALID,0,VALID,93.3851,VALID,0,VALID,24.5796,VALID,166,VALID,0.605859,
2012-03-05, 00:26:04,VALID,1001.61,VALID,0.5,VALID,93.4233,VALID,0,VALID,24.5388,VALID,89,VALID,0.475391,
2012-03-05, 00:27:04,VALID,1001.6,VALID,0,VALID,93.4843,VALID,0,VALID,24.5582,VALID,83,VALID,0.644141,
2012-03-05, 00:28:04,VALID,1001.61,VALID,0,VALID,93.4156,VALID,0,VALID,24.5406,VALID,84,VALID,0.317969,
2012-03-05, 00:29:04,VALID,1001.58,VALID,0,VALID,93.4538,VALID,0,VALID,24.5212,VALID,84,VALID,0.00585938,
2012-03-05, 00:30:04,VALID,1001.59,VALID,0,VALID,93.4385,VALID,0,VALID,24.4804,VALID,76,VALID,0.00703125,
2012-03-05, 00:31:04,VALID,1001.58,VALID,0,VALID,93.5606,VALID,0,VALID,24.4998,VALID,76,VALID,0.242578,
2012-03-05, 00:32:04,VALID,1001.57,VALID,0,VALID,93.5758,VALID,0,VALID,24.5017,VALID,74,VALID,0.352344,
2012-03-05, 00:33:04,VALID,1001.58,VALID,0,VALID,93.5987,VALID,0,VALID,24.4822,VALID,74,VALID,0.0851562,
2012-03-05, 00:34:04,VALID,1001.57,VALID,0,VALID,93.6445,VALID,0,VALID,24.5017,VALID,74,VALID,0,
2012-03-05, 00:35:04,VALID,1001.56,VALID,0,VALID,93.6369,VALID,0,VALID,24.4822,VALID,74,VALID,0.455859,
2012-03-05, 00:36:04,VALID,1001.54,VALID,0.5,VALID,93.6903,VALID,0,VALID,24.4414,VALID,75,VALID,0.394531,
2012-03-05, 00:37:04,VALID,1001.54,VALID,0,VALID,93.7361,VALID,0,VALID,24.4414,VALID,74,VALID,0,
2012-03-05, 00:38:04,VALID,1001.52,VALID,0,VALID,93.7742,VALID,0,VALID,24.4414,VALID,74,VALID,0,
2012-03-05, 00:39:04,VALID,1001.5,VALID,0,VALID,93.8429,VALID,0,VALID,24.4609,VALID,74,VALID,0.289844,
2012-03-05, 00:40:04,VALID,1001.52,VALID,0,VALID,93.8657,VALID,0.0815089,VALID,24.4609,VALID,65,VALID,0.00351562,
2012-03-05, 00:41:04,VALID,1001.51,VALID,0,VALID,93.9191,VALID,0,VALID,24.4804,VALID,80,VALID,0.332812,
2012-03-05, 00:42:04,VALID,1001.48,VALID,0,VALID,93.9497,VALID,0,VALID,24.4822,VALID,80,VALID,0.205469,
2012-03-05, 00:43:04,VALID,1001.44,VALID,0,VALID,93.9954,VALID,0,VALID,24.4804,VALID,43,VALID,0.428516,
2012-03-05, 00:44:04,VALID,1001.42,VALID,0,VALID,94.0259,VALID,0,VALID,24.4804,VALID,22,VALID,0.458594,
2012-03-05, 00:45:04,VALID,1001.43,VALID,0.5,VALID,94.0412,VALID,0,VALID,24.4998,VALID,23,VALID,0.372656,
2012-03-05, 00:46:04,VALID,1001.4,VALID,0,VALID,94.0336,VALID,0,VALID,24.4998,VALID,24,VALID,0,
2012-03-05, 00:47:04,VALID,1001.42,VALID,0,VALID,94.0259,VALID,0,VALID,24.5212,VALID,25,VALID,0.35625,
2012-03-05, 00:48:04,VALID,1001.38,VALID,0,VALID,94.0336,VALID,0,VALID,24.4998,VALID,25,VALID,0.112891,
2012-03-05, 00:49:04,VALID,1001.35,VALID,0,VALID,94.0412,VALID,0,VALID,24.4998,VALID,25,VALID,0.430078,
2012-03-05, 00:50:04,VALID,1001.33,VALID,0,VALID,94.0794,VALID,0,VALID,24.5212,VALID,25,VALID,0.344531,
2012-03-05, 00:51:04,VALID,1001.38,VALID,0.5,VALID,94.1175,VALID,0,VALID,24.4998,VALID,25,VALID,0.149609,
2012-03-05, 00:52:04,VALID,1001.32,VALID,0,VALID,94.1251,VALID,0,VALID,24.5193,VALID,25,VALID,0,
2012-03-05, 00:53:04,VALID,1001.29,VALID,0,VALID,94.0717,VALID,0,VALID,24.5212,VALID,355,VALID,0.841406,
2012-03-05, 00:54:04,VALID,1001.25,VALID,0,VALID,94.0946,VALID,0,VALID,24.4804,VALID,350,VALID,0.707422,
2012-03-05, 00:55:04,VALID,1001.26,VALID,0,VALID,94.1175,VALID,0,VALID,24.4785,VALID,356,VALID,0.522656,
2012-03-05, 00:56:04,VALID,1001.25,VALID,0,VALID,94.1862,VALID,0,VALID,24.4998,VALID,349,VALID,0.310547,
2012-03-05, 00:57:04,VALID,1001.26,VALID,0,VALID,94.1938,VALID,0,VALID,24.4998,VALID,352,VALID,0.379297,
2012-03-05, 00:58:04,VALID,1001.29,VALID,0,VALID,94.1862,VALID,0,VALID,24.5193,VALID,352,VALID,0.716016,
2012-03-05, 00:59:04,VALID,1001.3,VALID,0,VALID,94.1556,VALID,0,VALID,24.5017,VALID,352,VALID,0.324219,
2012-03-05, 01:00:04,VALID,1001.31,VALID,0.5,VALID,94.2167,VALID,0,VALID,24.4998,VALID,352,VALID,0.496094,
2012-03-05, 01:01:04,VALID,1001.31,VALID,0,VALID,94.2701,VALID,0,VALID,24.4998,VALID,17,VALID,0.7375,
2012-03-05, 01:02:04,VALID,1001.3,VALID,0,VALID,94.2396,VALID,0,VALID,24.5193,VALID,14,VALID,0.721484,
2012-03-05, 01:03:04,VALID,1001.31,VALID,0,VALID,94.2472,VALID,0,VALID,24.5212,VALID,10,VALID,0.573438,
2012-03-05, 01:04:04,VALID,1001.3,VALID,0,VALID,94.2014,VALID,0,VALID,24.4804,VALID,360,VALID,0.800781,
2012-03-05, 01:05:04,VALID,1001.32,VALID,0,VALID,94.2472,VALID,0,VALID,24.5017,VALID,360,VALID,0.401563,
2012-03-05, 01:06:04,VALID,1001.3,VALID,0,VALID,94.2853,VALID,0,VALID,24.4804,VALID,360,VALID,0.223047,
2012-03-05, 01:07:04,VALID,1001.3,VALID,0,VALID,94.354,VALID,0,VALID,24.5193,VALID,1,VALID,0.428125,
2012-03-05, 01:08:04,VALID,1001.28,VALID,0,VALID,94.3692,VALID,0,VALID,24.5601,VALID,5,VALID,0.261719,
2012-03-05, 01:09:04,VALID,1001.25,VALID,0,VALID,94.3921,VALID,0,VALID,24.5193,VALID,5,VALID,0,
2012-03-05, 01:10:04,VALID,1001.22,VALID,0,VALID,94.3235,VALID,0,VALID,24.5406,VALID,5,VALID,0,
2012-03-05, 01:11:04,VALID,1001.21,VALID,0,VALID,94.3082,VALID,0,VALID,24.5212,VALID,5,VALID,0,
2012-03-05, 01:12:04,VALID,1001.17,VALID,0,VALID,94.3311,VALID,0,VALID,24.4998,VALID,5,VALID,0,
2012-03-05, 01:13:04,VALID,1001.16,VALID,0,VALID,94.3235,VALID,0,VALID,24.5212,VALID,5,VALID,0,
2012-03-05, 01:14:04,VALID,1001.14,VALID,0,VALID,94.3464,VALID,0,VALID,24.5017,VALID,5,VALID,0,
2012-03-05, 01:15:04,VALID,1001.1,VALID,0,VALID,94.354,VALID,0,VALID,24.4998,VALID,5,VALID,0,
2012-03-05, 01:16:04,VALID,1001.05,VALID,0,VALID,94.3769,VALID,0,VALID,24.4998,VALID,5,VALID,0,
2012-03-05, 01:17:04,VALID,1001.07,VALID,0,VALID,94.3769,VALID,0,VALID,24.5193,VALID,5,VALID,0,
2012-03-05, 01:18:04,VALID,1001.06,VALID,0,VALID,94.3998,VALID,0,VALID,24.5193,VALID,5,VALID,0,
2012-03-05, 01:19:04,VALID,1001.08,VALID,0,VALID,94.3769,VALID,0,VALID,24.5212,VALID,5,VALID,0,
2012-03-05, 01:20:04,VALID,1001.1,VALID,0,VALID,94.3921,VALID,0,VALID,24.5212,VALID,5,VALID,0,
2012-03-05, 01:21:04,VALID,1001.11,VALID,0,VALID,94.3921,VALID,0,VALID,24.5212,VALID,5,VALID,0,
2012-03-05, 01:22:04,VALID,1001.13,VALID,0,VALID,94.3692,VALID,0,VALID,24.4998,VALID,5,VALID,0,
2012-03-05, 01:23:04,VALID,1001.13,VALID,0,VALID,94.3769,VALID,0,VALID,24.4998,VALID,5,VALID,0,
2012-03-05, 01:24:04,VALID,1001.16,VALID,0,VALID,94.4303,VALID,0,VALID,24.4998,VALID,5,VALID,0,
2012-03-05, 01:25:04,VALID,1001.16,VALID,0,VALID,94.415,VALID,0,VALID,24.5017,VALID,5,VALID,0,
2012-03-05, 01:26:04,VALID,1001.19,VALID,0,VALID,94.4379,VALID,0,VALID,24.5212,VALID,5,VALID,0,
2012-03-05, 01:27:04,VALID,1001.2,VALID,0,VALID,94.4913,VALID,0,VALID,24.5406,VALID,5,VALID,0,
2012-03-05, 01:28:04,VALID,1001.2,VALID,0,VALID,94.4837,VALID,0,VALID,24.5212,VALID,5,VALID,0,
2012-03-05, 01:29:04,VALID,1001.25,VALID,0,VALID,94.4684,VALID,0,VALID,24.5425,VALID,5,VALID,0,
2012-03-05, 01:30:04,VALID,1001.3,VALID,0,VALID,94.4989,VALID,0,VALID,24.5212,VALID,5,VALID,0.665625,
2012-03-05, 01:31:04,VALID,1001.27,VALID,0,VALID,94.5218,VALID,0,VALID,24.5406,VALID,5,VALID,0.607031,
2012-03-05, 01:32:04,VALID,1001.31,VALID,0,VALID,94.5218,VALID,0,VALID,24.5193,VALID,5,VALID,0.538281,
2012-03-05, 01:33:04,VALID,1001.32,VALID,0,VALID,94.5447,VALID,0,VALID,24.5388,VALID,4,VALID,0.630078,
2012-03-05, 01:34:04,VALID,1001.34,VALID,0,VALID,94.5295,VALID,0,VALID,24.5193,VALID,5,VALID,0.576172,
2012-03-05, 01:35:04,VALID,1001.34,VALID,0,VALID,94.56,VALID,0,VALID,24.5406,VALID,356,VALID,0.615234,
2012-03-05, 01:36:04,VALID,1001.36,VALID,0,VALID,94.5523,VALID,0,VALID,24.5406,VALID,355,VALID,0.580078,
2012-03-05, 01:37:04,VALID,1001.34,VALID,0,VALID,94.5371,VALID,0,VALID,24.5193,VALID,354,VALID,0.741016,
2012-03-05, 01:38:04,VALID,1001.3,VALID,0,VALID,94.5371,VALID,0,VALID,24.5212,VALID,351,VALID,0.0410156,
2012-03-05, 01:39:04,VALID,1001.3,VALID,0,VALID,94.56,VALID,0,VALID,24.5406,VALID,351,VALID,0,
2012-03-05, 01:40:04,VALID,1001.26,VALID,0,VALID,94.5981,VALID,0,VALID,24.5601,VALID,351,VALID,0,
2012-03-05, 01:41:04,VALID,1001.25,VALID,0,VALID,94.6363,VALID,0,VALID,24.5796,VALID,351,VALID,0,
2012-03-05, 01:42:04,VALID,1001.22,VALID,0,VALID,94.6286,VALID,0,VALID,24.599,VALID,351,VALID,0,
2012-03-05, 01:43:04,VALID,1001.21,VALID,0,VALID,94.6515,VALID,0,VALID,24.6185,VALID,351,VALID,0,
2012-03-05, 01:44:04,VALID,1001.18,VALID,0,VALID,94.6439,VALID,0.0815089,VALID,24.5953,VALID,351,VALID,0,
2012-03-05, 01:45:04,VALID,1001.18,VALID,0,VALID,94.6363,VALID,0,VALID,24.6185,VALID,351,VALID,0,
2012-03-05, 01:46:04,VALID,1001.14,VALID,0,VALID,94.6363,VALID,0,VALID,24.6166,VALID,351,VALID,0,
2012-03-05, 01:47:04,VALID,1001.15,VALID,0,VALID,94.6363,VALID,0,VALID,24.638,VALID,351,VALID,0,
2012-03-05, 01:48:04,VALID,1001.12,VALID,0,VALID,94.621,VALID,0,VALID,24.6574,VALID,351,VALID,0,
2012-03-05, 01:49:04,VALID,1001.12,VALID,0,VALID,94.621,VALID,0,VALID,24.6361,VALID,351,VALID,0,
2012-03-05, 01:50:04,VALID,1001.09,VALID,0,VALID,94.6057,VALID,0,VALID,24.638,VALID,351,VALID,0,
2012-03-05, 01:51:04,VALID,1001.08,VALID,0,VALID,94.5752,VALID,0,VALID,24.638,VALID,351,VALID,0,
2012-03-05, 01:52:04,VALID,1001.08,VALID,0,VALID,94.5829,VALID,0,VALID,24.638,VALID,351,VALID,0,
2012-03-05, 01:53:04,VALID,1001.06,VALID,0,VALID,94.5829,VALID,0,VALID,24.638,VALID,351,VALID,0,
2012-03-05, 01:54:04,VALID,1001.03,VALID,0,VALID,94.5676,VALID,0,VALID,24.5972,VALID,351,VALID,0,
2012-03-05, 01:55:04,VALID,1001.04,VALID,0,VALID,94.5676,VALID,0,VALID,24.599,VALID,351,VALID,0,
2012-03-05, 01:56:04,VALID,1001.02,VALID,0.5,VALID,94.56,VALID,0,VALID,24.5582,VALID,351,VALID,0,
2012-03-05, 01:57:04,VALID,1001.03,VALID,0,VALID,94.5676,VALID,0,VALID,24.599,VALID,351,VALID,0,
2012-03-05, 01:58:04,VALID,1001.01,VALID,0,VALID,94.5905,VALID,0,VALID,24.5582,VALID,351,VALID,0,
2012-03-05, 01:59:04,VALID,1001.04,VALID,0,VALID,94.5981,VALID,0,VALID,24.5796,VALID,351,VALID,0,
2012-03-05, 02:00:04,VALID,1001.03,VALID,0,VALID,94.621,VALID,0,VALID,24.5777,VALID,351,VALID,0,
2012-03-05, 02:01:05,VALID,1001.05,VALID,0,VALID,94.6134,VALID,0,VALID,24.5796,VALID,351,VALID,0.403125,
2012-03-05, 02:02:05,VALID,1001.06,VALID,0.5,VALID,94.6134,VALID,0,VALID,24.5582,VALID,351,VALID,0.203125,
2012-03-05, 02:03:05,VALID,1001.03,VALID,0,VALID,94.6057,VALID,0,VALID,24.5388,VALID,351,VALID,0.307031,
2012-03-05, 02:04:05,VALID,1001.05,VALID,0,VALID,94.6134,VALID,0,VALID,24.5193,VALID,351,VALID,0,
2012-03-05, 02:05:05,VALID,1001.02,VALID,0,VALID,94.6286,VALID,0,VALID,24.5193,VALID,351,VALID,0.253125,
2012-03-05, 02:06:05,VALID,1001,VALID,0,VALID,94.6515,VALID,0,VALID,24.5388,VALID,351,VALID,0.387891,
2012-03-05, 02:07:05,VALID,1000.99,VALID,0,VALID,94.6591,VALID,0,VALID,24.5193,VALID,351,VALID,0.502734,
2012-03-05, 02:08:05,VALID,1001,VALID,0.5,VALID,94.6439,VALID,0,VALID,24.5406,VALID,351,VALID,0.310547,
2012-03-05, 02:09:05,VALID,1001,VALID,0,VALID,94.6515,VALID,0,VALID,24.5193,VALID,351,VALID,0.544922,
2012-03-05, 02:10:05,VALID,1000.99,VALID,0,VALID,94.682,VALID,0,VALID,24.5193,VALID,351,VALID,0.385547,
2012-03-05, 02:11:05,VALID,1000.99,VALID,0,VALID,94.6744,VALID,0,VALID,24.4998,VALID,353,VALID,0.496484,
2012-03-05, 02:12:05,VALID,1000.97,VALID,0.5,VALID,94.6897,VALID,0,VALID,24.5406,VALID,353,VALID,0.216797,
2012-03-05, 02:13:05,VALID,1000.94,VALID,0,VALID,94.682,VALID,0,VALID,24.4998,VALID,353,VALID,0.127344,
2012-03-05, 02:14:05,VALID,1000.91,VALID,0,VALID,94.6744,VALID,0,VALID,24.5425,VALID,353,VALID,0.1875,
2012-03-05, 02:15:05,VALID,1000.89,VALID,0,VALID,94.6973,VALID,0,VALID,24.4804,VALID,353,VALID,0,
2012-03-05, 02:16:05,VALID,1000.89,VALID,0,VALID,94.7049,VALID,0,VALID,24.4804,VALID,353,VALID,0,
2012-03-05, 02:17:05,VALID,1000.88,VALID,0.5,VALID,94.6897,VALID,0,VALID,24.4804,VALID,353,VALID,0,
2012-03-05, 02:18:05,VALID,1000.9,VALID,0,VALID,94.7049,VALID,0,VALID,24.5017,VALID,353,VALID,0,
2012-03-05, 02:19:05,VALID,1000.93,VALID,0,VALID,94.7888,VALID,0,VALID,24.5388,VALID,26,VALID,0.463281,
2012-03-05, 02:20:05,VALID,1000.92,VALID,0,VALID,94.827,VALID,0,VALID,24.5582,VALID,62,VALID,0.502734,
2012-03-05, 02:21:05,VALID,1000.92,VALID,0,VALID,94.8346,VALID,0,VALID,24.5777,VALID,62,VALID,0,
2012-03-05, 02:22:05,VALID,1000.87,VALID,0,VALID,94.8117,VALID,0,VALID,24.5777,VALID,62,VALID,0,
2012-03-05, 02:23:05,VALID,1000.89,VALID,0,VALID,94.7888,VALID,0,VALID,24.599,VALID,62,VALID,0,
2012-03-05, 02:24:05,VALID,1000.88,VALID,0,VALID,94.8041,VALID,0,VALID,24.599,VALID,62,VALID,0.2,
2012-03-05, 02:25:05,VALID,1000.9,VALID,0.5,VALID,94.8117,VALID,0,VALID,24.599,VALID,62,VALID,0.253125,
2012-03-05, 02:26:05,VALID,1000.91,VALID,0,VALID,94.7965,VALID,0,VALID,24.5796,VALID,109,VALID,0.834766,
2012-03-05, 02:27:05,VALID,1000.94,VALID,0,VALID,94.7888,VALID,0,VALID,24.5777,VALID,110,VALID,0.61875,
2012-03-05, 02:28:05,VALID,1000.95,VALID,0,VALID,94.8194,VALID,0,VALID,24.5777,VALID,110,VALID,0.603516,
2012-03-05, 02:29:05,VALID,1000.95,VALID,0,VALID,94.8041,VALID,0,VALID,24.5972,VALID,126,VALID,0.841797,
2012-03-05, 02:30:05,VALID,1000.94,VALID,0,VALID,94.7965,VALID,0,VALID,24.599,VALID,126,VALID,0.675781,
2012-03-05, 02:31:05,VALID,1000.91,VALID,0,VALID,94.7125,VALID,0,VALID,24.5193,VALID,125,VALID,0.704687,
2012-03-05, 02:32:05,VALID,1000.89,VALID,0,VALID,94.7049,VALID,0,VALID,24.4804,VALID,125,VALID,0.713672,
2012-03-05, 02:33:05,VALID,1000.87,VALID,0,VALID,94.6515,VALID,0,VALID,24.4822,VALID,123,VALID,0.580078,
2012-03-05, 02:34:05,VALID,1000.88,VALID,0,VALID,94.6515,VALID,0,VALID,24.4628,VALID,135,VALID,0.599609,
2012-03-05, 02:35:05,VALID,1000.84,VALID,0,VALID,94.6973,VALID,0,VALID,24.4414,VALID,133,VALID,0.490234,
2012-03-05, 02:36:05,VALID,1000.86,VALID,0,VALID,94.6897,VALID,0,VALID,24.4628,VALID,130,VALID,0.368359,
2012-03-05, 02:37:05,VALID,1000.85,VALID,0,VALID,94.6897,VALID,0,VALID,24.4628,VALID,100,VALID,0.354688,
2012-03-05, 02:38:05,VALID,1000.84,VALID,0,VALID,94.6973,VALID,0,VALID,24.4414,VALID,100,VALID,0.525,
2012-03-05, 02:39:05,VALID,1000.83,VALID,0,VALID,94.7125,VALID,0,VALID,24.4414,VALID,100,VALID,0.373437,
2012-03-05, 02:40:05,VALID,1000.84,VALID,0,VALID,94.7431,VALID,0,VALID,24.4609,VALID,100,VALID,0.3375,
2012-03-05, 02:41:05,VALID,1000.82,VALID,0,VALID,94.7736,VALID,0,VALID,24.4804,VALID,100,VALID,0.314063,
2012-03-05, 02:42:05,VALID,1000.8,VALID,0,VALID,94.766,VALID,0,VALID,24.4609,VALID,98,VALID,0.828906,
2012-03-05, 02:43:05,VALID,1000.8,VALID,0,VALID,94.7354,VALID,0,VALID,24.4628,VALID,80,VALID,0.555078,
2012-03-05, 02:44:05,VALID,1000.76,VALID,0,VALID,94.7125,VALID,0,VALID,24.4609,VALID,80,VALID,0.410156,
2012-03-05, 02:45:05,VALID,1000.71,VALID,0,VALID,94.7278,VALID,0,VALID,24.4414,VALID,80,VALID,0.272656,
2012-03-05, 02:46:05,VALID,1000.75,VALID,0,VALID,94.6973,VALID,0,VALID,24.4628,VALID,80,VALID,0.208203,
2012-03-05, 02:47:05,VALID,1000.77,VALID,0,VALID,94.7278,VALID,0,VALID,24.4414,VALID,80,VALID,0,
2012-03-05, 02:48:05,VALID,1000.77,VALID,0,VALID,94.7354,VALID,0,VALID,24.4414,VALID,80,VALID,0.213672,
2012-03-05, 02:49:05,VALID,1000.77,VALID,0,VALID,94.7278,VALID,0,VALID,24.4433,VALID,82,VALID,0.6,
2012-03-05, 02:50:05,VALID,1000.77,VALID,0,VALID,94.7354,VALID,0,VALID,24.4628,VALID,81,VALID,0.436328,
2012-03-05, 02:51:05,VALID,1000.81,VALID,0,VALID,94.7431,VALID,0,VALID,24.4628,VALID,89,VALID,0.530078,
2012-03-05, 02:52:05,VALID,1000.78,VALID,0,VALID,94.7583,VALID,0,VALID,24.4628,VALID,92,VALID,0.585938,
2012-03-05, 02:53:05,VALID,1000.83,VALID,0,VALID,94.7507,VALID,0,VALID,24.4628,VALID,98,VALID,0.584375,
2012-03-05, 02:54:05,VALID,1000.84,VALID,0,VALID,94.7507,VALID,0,VALID,24.4414,VALID,99,VALID,0.675391,
2012-03-05, 02:55:05,VALID,1000.83,VALID,0,VALID,94.7354,VALID,0,VALID,24.4628,VALID,106,VALID,0.918359,
2012-03-05, 02:56:05,VALID,1000.85,VALID,0,VALID,94.7202,VALID,0,VALID,24.4822,VALID,102,VALID,1.08945,
2012-03-05, 02:57:05,VALID,1000.83,VALID,0,VALID,94.7354,VALID,0,VALID,24.422,VALID,71,VALID,0.754687,
2012-03-05, 02:58:05,VALID,1000.86,VALID,0,VALID,94.7125,VALID,0,VALID,24.4433,VALID,87,VALID,0.789063,
2012-03-05, 02:59:05,VALID,1000.88,VALID,0,VALID,94.7202,VALID,0,VALID,24.4433,VALID,43,VALID,0.695703,
2012-03-05, 03:00:05,VALID,1000.89,VALID,0,VALID,94.7049,VALID,0,VALID,24.4433,VALID,52,VALID,0.215234,
2012-03-05, 03:01:05,VALID,1000.88,VALID,0,VALID,94.7049,VALID,0,VALID,24.4433,VALID,67,VALID,0.431641,
2012-03-05, 03:02:05,VALID,1000.88,VALID,0,VALID,94.682,VALID,0,VALID,24.422,VALID,98,VALID,0.143359,
2012-03-05, 03:03:05,VALID,1000.83,VALID,0,VALID,94.6591,VALID,0,VALID,24.4025,VALID,71,VALID,0.741016,
2012-03-05, 03:04:05,VALID,1000.81,VALID,0,VALID,94.6515,VALID,0,VALID,24.4043,VALID,62,VALID,0.357812,
2012-03-05, 03:05:05,VALID,1000.79,VALID,0,VALID,94.6363,VALID,0,VALID,24.383,VALID,94,VALID,0.295703,
2012-03-05, 03:06:05,VALID,1000.77,VALID,0.5,VALID,94.5905,VALID,0,VALID,24.3441,VALID,41,VALID,0.299609,
2012-03-05, 03:07:05,VALID,1000.78,VALID,0,VALID,94.6134,VALID,0,VALID,24.3459,VALID,55,VALID,0.321875,
2012-03-05, 03:08:05,VALID,1000.79,VALID,0,VALID,94.621,VALID,0,VALID,24.3441,VALID,55,VALID,0,
2012-03-05, 03:09:05,VALID,1000.78,VALID,0,VALID,94.621,VALID,0,VALID,24.3441,VALID,24,VALID,0.485156,
2012-03-05, 03:10:05,VALID,1000.79,VALID,0,VALID,94.6363,VALID,0,VALID,24.3441,VALID,25,VALID,0.312109,
2012-03-05, 03:11:05,VALID,1000.78,VALID,0,VALID,94.6363,VALID,0,VALID,24.3441,VALID,25,VALID,0,
2012-03-05, 03:12:05,VALID,1000.75,VALID,0,VALID,94.6439,VALID,0,VALID,24.3441,VALID,25,VALID,0,
2012-03-05, 03:13:05,VALID,1000.74,VALID,0,VALID,94.621,VALID,0,VALID,24.3459,VALID,37,VALID,0.244531,
2012-03-05, 03:14:05,VALID,1000.71,VALID,0,VALID,94.6286,VALID,0,VALID,24.3052,VALID,37,VALID,0.180078,
2012-03-05, 03:15:05,VALID,1000.71,VALID,0.5,VALID,94.5981,VALID,0,VALID,24.3033,VALID,37,VALID,0.180469,
2012-03-05, 03:16:05,VALID,1000.71,VALID,0,VALID,94.6134,VALID,0,VALID,24.3052,VALID,37,VALID,0.00195313,
2012-03-05, 03:17:05,VALID,1000.65,VALID,0,VALID,94.621,VALID,0,VALID,24.3052,VALID,37,VALID,0,
2012-03-05, 03:18:05,VALID,1000.67,VALID,0,VALID,94.6363,VALID,0,VALID,24.2857,VALID,37,VALID,0,
2012-03-05, 03:19:05,VALID,1000.66,VALID,0,VALID,94.6515,VALID,0.0815089,VALID,24.2644,VALID,37,VALID,0,
2012-03-05, 03:20:05,VALID,1000.63,VALID,0,VALID,94.6744,VALID,0.0815089,VALID,24.2857,VALID,37,VALID,0,
2012-03-05, 03:21:05,VALID,1000.64,VALID,0,VALID,94.6515,VALID,0,VALID,24.2662,VALID,37,VALID,0,
2012-03-05, 03:22:05,VALID,1000.63,VALID,0.5,VALID,94.6668,VALID,0.0815089,VALID,24.2681,VALID,37,VALID,0,
2012-03-05, 03:23:05,VALID,1000.63,VALID,0,VALID,94.6591,VALID,0,VALID,24.2662,VALID,37,VALID,0,
2012-03-05, 03:24:05,VALID,1000.61,VALID,0,VALID,94.6439,VALID,0,VALID,24.2273,VALID,37,VALID,0,
2012-03-05, 03:25:05,VALID,1000.6,VALID,0,VALID,94.6744,VALID,0,VALID,24.2662,VALID,37,VALID,0,
2012-03-05, 03:26:05,VALID,1000.61,VALID,0,VALID,94.682,VALID,0,VALID,24.2468,VALID,37,VALID,0,
2012-03-05, 03:27:05,VALID,1000.61,VALID,0,VALID,94.7049,VALID,0,VALID,24.2681,VALID,37,VALID,0,
2012-03-05, 03:28:05,VALID,1000.6,VALID,0,VALID,94.7049,VALID,0,VALID,24.2662,VALID,37,VALID,0,
2012-03-05, 03:29:05,VALID,1000.61,VALID,0,VALID,94.6897,VALID,0,VALID,24.2468,VALID,37,VALID,0,
2012-03-05, 03:30:05,VALID,1000.63,VALID,0,VALID,94.7125,VALID,0,VALID,24.2662,VALID,37,VALID,0,
2012-03-05, 03:31:05,VALID,1000.6,VALID,0,VALID,94.7278,VALID,0,VALID,24.2875,VALID,37,VALID,0,
2012-03-05, 03:32:05,VALID,1000.61,VALID,0,VALID,94.7125,VALID,0,VALID,24.2857,VALID,37,VALID,0,
2012-03-05, 03:33:05,VALID,1000.58,VALID,0,VALID,94.7431,VALID,0,VALID,24.307,VALID,59,VALID,0.127734,
2012-03-05, 03:34:05,VALID,1000.63,VALID,0,VALID,94.7431,VALID,0,VALID,24.2857,VALID,72,VALID,0.503125,
2012-03-05, 03:35:05,VALID,1000.59,VALID,0,VALID,94.7507,VALID,0,VALID,24.2857,VALID,72,VALID,0.294922,
2012-03-05, 03:36:05,VALID,1000.61,VALID,0,VALID,94.7431,VALID,0,VALID,24.2875,VALID,72,VALID,0.248828,
2012-03-05, 03:37:05,VALID,1000.67,VALID,0.5,VALID,94.7431,VALID,0,VALID,24.2875,VALID,72,VALID,0.185547,
2012-03-05, 03:38:05,VALID,1000.67,VALID,0,VALID,94.7354,VALID,0,VALID,24.2857,VALID,72,VALID,0.174609,
2012-03-05, 03:39:05,VALID,1000.68,VALID,0,VALID,94.7354,VALID,0,VALID,24.2857,VALID,72,VALID,0,
2012-03-05, 03:40:05,VALID,1000.68,VALID,0,VALID,94.7583,VALID,0.0815089,VALID,24.307,VALID,72,VALID,0,
2012-03-05, 03:41:05,VALID,1000.71,VALID,0,VALID,94.7202,VALID,0.0815089,VALID,24.2875,VALID,72,VALID,0,
2012-03-05, 03:42:05,VALID,1000.71,VALID,0,VALID,94.7125,VALID,0,VALID,24.2875,VALID,72,VALID,0,
2012-03-05, 03:43:05,VALID,1000.71,VALID,0,VALID,94.7202,VALID,0,VALID,24.2662,VALID,72,VALID,0,
2012-03-05, 03:44:05,VALID,1000.73,VALID,0,VALID,94.7278,VALID,0,VALID,24.2875,VALID,72,VALID,0,
2012-03-05, 03:45:05,VALID,1000.72,VALID,0,VALID,94.7202,VALID,0,VALID,24.2875,VALID,72,VALID,0,
2012-03-05, 03:46:05,VALID,1000.73,VALID,0,VALID,94.7278,VALID,0,VALID,24.2486,VALID,72,VALID,0,
2012-03-05, 03:47:05,VALID,1000.75,VALID,0.5,VALID,94.7354,VALID,0,VALID,24.2681,VALID,72,VALID,0,
2012-03-05, 03:48:05,VALID,1000.78,VALID,0,VALID,94.7431,VALID,0,VALID,24.2468,VALID,72,VALID,0,
2012-03-05, 03:49:05,VALID,1000.76,VALID,0,VALID,94.7583,VALID,0.0815089,VALID,24.2662,VALID,72,VALID,0,
2012-03-05, 03:50:05,VALID,1000.82,VALID,0,VALID,94.7583,VALID,0,VALID,24.2662,VALID,72,VALID,0,
2012-03-05, 03:51:05,VALID,1000.8,VALID,0,VALID,94.7888,VALID,0.0815089,VALID,24.2681,VALID,72,VALID,0,